FW6820 Weather Reports


Display with metric or nautical units.
time (UTC)temp
F
wind
direction
speed
MPH
gust
MPH
rain 1hr
in
rain 24hr
in
rain mn
in
humidity
%
barometer
mb
20260506184539 93 323 1.0 6.0 0.00 0.00 0.00 65 1006.6
20260506183038 91 327 2.0 6.0 0.00 0.00 0.00 67 1006.8
20260506181545 91 170 1.0 8.0 0.00 0.00 0.00 67 1007.0
20260506180048 91 171 5.0 11.0 0.00 0.00 0.00 67 1006.9
20260506174540 90 98 4.0 10.0 0.00 0.00 0.00 70 1007.1
20260506173045 89 136 5.0 12.0 0.00 0.00 0.00 70 1007.3
20260506171551 88 110 8.0 12.0 0.00 0.00 0.00 71 1007.3
20260506170040 87 132 9.0 14.0 0.00 0.00 0.00 72 1007.4
20260506164541 87 130 6.0 14.0 0.00 0.00 0.00 73 1007.4
20260506163043 87 145 7.0 14.0 0.00 0.00 0.00 73 1007.4
20260506161540 86 132 7.0 12.0 0.00 0.00 0.00 74 1007.1
20260506160041 85 153 8.0 14.0 0.00 0.00 0.00 75 1007.2
20260506154608 84 130 5.0 12.0 0.00 0.00 0.00 77 1007.3
20260506153043 83 134 7.0 12.0 0.00 0.00 0.00 78 1007.3
20260506151541 82 163 5.0 13.0 0.00 0.00 0.00 80 1007.4
20260506150042 82 136 6.0 11.0 0.00 0.00 0.00 81 1007.4
20260506144547 81 146 5.0 14.0 0.00 0.00 0.00 83 1007.6
20260506143034 80 153 7.0 14.0 0.00 0.00 0.00 83 1007.8
20260506141541 80 132 8.0 11.0 0.00 0.00 0.00 83 1007.9
20260506140055 80 132 5.0 10.0 0.00 0.00 0.00 84 1007.6
20260506134542 80 137 3.0 9.0 0.00 0.00 0.00 85 1007.7
20260506133045 80 134 3.0 7.0 0.00 0.00 0.00 86 1007.7
20260506131543 79 142 3.0 9.0 0.00 0.00 0.00 86 1007.8
20260506130045 80 135 1.0 4.0 0.00 0.00 0.00 86 1007.7
20260506124541 80 135 2.0 4.0 0.00 0.00 0.00 85 1007.4
20260506123040 80 0 1.0 5.0 0.00 0.00 0.00 85 1007.2
20260506121537 80 150 1.0 7.0 0.00 0.00 0.00 85 1006.9
20260506120040 80 143 4.0 8.0 0.00 0.00 0.00 85 1006.5
20260506114542 80 160 3.0 8.0 0.00 0.00 0.00 85 1006.0
20260506113047 80 146 4.0 10.0 0.00 0.00 0.00 85 1006.1
20260506111537 80 154 6.0 11.0 0.00 0.00 0.00 84 1005.9
20260506110038 80 112 4.0 9.0 0.00 0.00 0.00 84 1005.7
20260506104549 80 136 4.0 9.0 0.00 0.00 0.00 84 1005.5
20260506103042 80 129 5.0 11.0 0.00 0.00 0.00 84 1005.2
20260506101547 80 144 5.0 9.0 0.00 0.00 0.00 84 1005.1
20260506100040 80 129 5.0 11.0 0.00 0.00 0.00 84 1005.0
20260506094536 80 147 4.0 12.0 0.00 0.00 0.00 84 1004.9
20260506093042 80 104 7.0 14.0 0.00 0.00 0.00 84 1005.0
20260506091541 80 146 9.0 14.0 0.00 0.00 0.00 84 1004.9
20260506090040 80 159 10.0 16.0 0.00 0.00 0.00 83 1005.2
20260506084546 80 125 9.0 15.0 0.00 0.00 0.00 83 1005.2
20260506083037 80 146 8.0 15.0 0.00 0.00 0.00 83 1005.2
20260506081542 80 142 10.0 19.0 0.00 0.00 0.00 83 1005.4
20260506073039 80 142 9.0 18.0 0.00 0.00 0.00 84 1005.7
20260506071545 80 126 9.0 20.0 0.00 0.00 0.00 84 1005.7
20260506061554 80 130 11.0 17.0 0.00 0.00 0.00 85 1006.1
20260506044537 80 130 9.0 21.0 0.00 0.00 0.00 83 1006.8
20260506043040 81 134 12.0 20.0 0.00 0.00 0.00 83 1006.7
20260506041540 81 119 9.0 20.0 0.00 0.00 0.00 82 1006.8
20260506040041 81 124 10.0 19.0 0.00 0.00 0.00 82 1006.8
20260506034539 81 115 9.0 21.0 0.00 0.00 0.00 82 1006.6
20260506033047 81 109 10.0 23.0 0.00 0.00 0.00 81 1006.3
20260506031542 81 148 12.0 21.0 0.00 0.00 0.00 81 1006.0
20260506030042 81 137 12.0 24.0 0.00 0.00 0.00 81 1005.9
20260506024544 81 123 11.0 24.0 0.00 0.00 0.00 81 1005.5
20260506023049 81 123 10.0 18.0 0.00 0.00 0.00 80 1005.4
20260506021537 82 116 12.0 22.0 0.00 0.00 0.00 80 1005.3
20260506020042 82 128 9.0 22.0 0.00 0.00 0.00 79 1005.1
20260506014543 82 148 13.0 24.0 0.00 0.00 0.00 78 1004.8
20260506013040 82 130 13.0 21.0 0.00 0.00 0.00 78 1004.6
20260506011535 83 131 8.0 19.0 0.00 0.00 0.00 77 1004.4
20260506010054 83 115 13.0 21.0 0.00 0.00 0.00 76 1004.2
20260506004547 84 107 12.0 23.0 0.00 0.00 0.00 75 1004.1
20260506003042 85 145 13.0 22.0 0.00 0.00 0.00 73 1003.9
20260506001544 86 125 12.0 20.0 0.00 0.00 0.00 71 1003.7
20260506000038 87 115 12.0 19.0 0.00 0.00 0.00 71 1003.5
20260505234559 88 140 12.0 20.0 0.00 0.00 0.00 69 1003.5
20260505233043 88 111 10.0 22.0 0.00 0.00 0.00 69 1003.4
20260505231541 89 101 11.0 25.0 0.00 0.00 0.00 68 1003.4
20260505230039 90 134 12.0 21.0 0.00 0.00 0.00 66 1003.4
20260505224539 91 169 11.0 20.0 0.00 0.00 0.00 66 1003.5
20260505223045 91 126 15.0 22.0 0.00 0.00 0.00 65 1003.4
20260505221542 91 140 12.0 21.0 0.00 0.00 0.00 64 1003.5
20260505220042 91 121 11.0 21.0 0.00 0.00 0.00 65 1003.6
20260505214559 92 119 11.0 22.0 0.00 0.00 0.00 64 1003.7
20260505213056 93 135 9.0 17.0 0.00 0.00 0.00 63 1003.9
20260505211542 93 111 8.0 19.0 0.00 0.00 0.00 63 1003.9
20260505210041 93 140 12.0 19.0 0.00 0.00 0.00 62 1004.2
20260505204548 93 119 12.0 20.0 0.00 0.00 0.00 61 1004.3
20260505203046 94 114 8.0 19.0 0.00 0.00 0.00 61 1004.4
20260505201545 93 159 9.0 21.0 0.00 0.00 0.00 61 1004.5
20260505200052 93 101 9.0 20.0 0.00 0.00 0.00 61 1004.7
20260505194545 93 117 10.0 19.0 0.00 0.00 0.00 60 1004.8
20260505193040 93 107 9.0 16.0 0.00 0.00 0.00 60 1005.0
20260505191537 92 140 11.0 19.0 0.00 0.00 0.00 60 1005.3
20260505190042 92 108 10.0 17.0 0.00 0.00 0.00 61 1005.6